Weather History for Stuttgart, AR

Change the Weather History Date:

Monday, December 10, 2012

  Actual Average Record
Temperature  
Mean Temperature 42 °F -  
Max Temperature 53 °F 50 °F 71 °F (1996)
Min Temperature 30 °F 36 °F 23 °F (2005)
Degree Days  
Heating Degree Days 24    
Moisture  
Dew Point 29 °F    
Average Humidity 65    
Maximum Humidity 77    
Minimum Humidity 53    
Precipitation  
Precipitation 0.00 in - - ()
Sea Level Pressure  
Sea Level Pressure 29.99 in    
Wind  
Wind Speed 15 mph (NNW)    
Max Wind Speed 26 mph    
Max Gust Speed 31 mph    
Visibility 10 miles    
Events      
Averages and records for this station are not official NWS values.
T = Trace of Precipitation, MM = Missing Value Source: NWS Daily Summary

Daily Weather History Graph

Daily Weather History Graph

Search for Another Location

Airport:

Trip Planner

Search our weather history database for the weather conditions in past years. The results will help you decide how hot, cold, wet, or windy it might be!

Date:

Astronomy

Dec. 10, 2012 Rise Set
Actual Time 7:02 AM CST 4:55 PM CST
Civil Twilight 6:34 AM CST 5:23 PM CST
Nautical Twilight 6:03 AM CST 5:55 PM CST
Astronomical Twilight 5:32 AM CST 6:25 PM CST
Moon 3:51 AM CST (12/10) 2:41 PM CST (12/10)
Length of Visible Light 10h 49m
Length of Day
9h 53m
Waning Crescent, 10% of the Moon is Illuminated
Dec 10
Waning Crescent
Dec 13
New
Dec 19
First Quarter
Dec 28
Full
Jan 4
Last Quarter

Hourly Weather History & Observations

Time (CST) Temp. Windchill Dew Point Humidity Pressure Visibility Wind Dir Wind Speed Gust Speed Precip Events Conditions
12:15 AM 53.6 °F - 46.4 °F 77% 29.87 in 10.0 mi NNW 15.0 mph - N/A   Overcast
12:35 AM 51.8 °F - 44.6 °F 76% 29.85 in 10.0 mi North 15.0 mph - N/A   Overcast
1:15 AM 51.8 °F - 44.6 °F 76% 29.85 in 10.0 mi NNW 18.4 mph - N/A   Overcast
1:35 AM 50.0 °F - 42.8 °F 76% 29.84 in 10.0 mi North 19.6 mph 25.3 mph N/A   Overcast
1:55 AM 50.0 °F - 42.8 °F 76% 29.85 in 10.0 mi NNW 20.7 mph 25.3 mph N/A   Overcast
2:15 AM 50.0 °F - 42.8 °F 76% 29.85 in 10.0 mi North 17.3 mph - N/A   Overcast
2:55 AM 48.2 °F - 41.0 °F 76% 29.88 in 10.0 mi North 15.0 mph - N/A   Overcast
3:16 AM 48.2 °F - 41.0 °F 76% 29.87 in 10.0 mi North 13.8 mph - N/A   Overcast
3:35 AM 48.2 °F - 39.2 °F 71% 29.88 in 10.0 mi North 15.0 mph 19.6 mph N/A   Overcast
3:55 AM 48.2 °F - 39.2 °F 71% 29.85 in 10.0 mi North 13.8 mph - N/A   Overcast
4:35 AM 48.2 °F - 39.2 °F 71% 29.87 in 10.0 mi NNW 16.1 mph - N/A   Overcast
4:55 AM 46.4 °F 40.7 °F 39.2 °F 76% 29.87 in 10.0 mi North 12.7 mph 17.3 mph N/A   Overcast
5:35 AM 46.4 °F 39.8 °F 37.4 °F 71% 29.90 in 10.0 mi NNW 16.1 mph - N/A   Overcast
5:55 AM 44.6 °F 36.4 °F 35.6 °F 71% 29.88 in 10.0 mi NNW 20.7 mph - N/A   Overcast
6:35 AM 42.8 °F 34.3 °F 35.6 °F 76% 29.90 in 10.0 mi NNW 19.6 mph - N/A   Overcast
6:55 AM 42.8 °F 34.3 °F 33.8 °F 70% 29.91 in 10.0 mi NNW 19.6 mph 26.5 mph N/A   Overcast
7:35 AM 39.2 °F 28.0 °F 30.2 °F 70% 29.95 in 10.0 mi NW 26.5 mph 31.1 mph N/A   Overcast
7:55 AM 37.4 °F 26.9 °F 26.6 °F 65% 29.97 in 10.0 mi NNW 20.7 mph 29.9 mph N/A   Mostly Cloudy
8:15 AM 37.4 °F 27.2 °F 26.6 °F 65% 29.99 in 10.0 mi NW 19.6 mph - N/A   Overcast
8:55 AM 37.4 °F 28.5 °F 26.6 °F 65% 29.98 in 10.0 mi NNW 15.0 mph - N/A   Overcast
9:15 AM 39.2 °F 30.2 °F 26.6 °F 61% 29.98 in 10.0 mi NW 17.3 mph 23.0 mph N/A   Mostly Cloudy
9:36 AM 39.2 °F 29.3 °F 26.6 °F 61% 29.99 in 10.0 mi NW 20.7 mph - N/A   Scattered Clouds
9:55 AM 39.2 °F 30.5 °F 26.6 °F 61% 30.00 in 10.0 mi NW 16.1 mph - N/A   Clear
10:15 AM 39.2 °F 29.6 °F 24.8 °F 56% 30.01 in 10.0 mi NNW 19.6 mph - N/A   Partly Cloudy
10:35 AM 39.2 °F 30.2 °F 26.6 °F 61% 30.01 in 10.0 mi NW 17.3 mph - N/A   Clear
10:55 AM 39.2 °F 30.5 °F 26.6 °F 61% 30.01 in 10.0 mi NW 16.1 mph 20.7 mph N/A   Clear
11:15 AM 41.0 °F 33.5 °F 26.6 °F 57% 30.00 in 10.0 mi NNW 13.8 mph - N/A   Scattered Clouds
11:35 AM 39.2 °F 31.2 °F 26.6 °F 61% 30.00 in 10.0 mi NW 13.8 mph - N/A   Overcast
11:56 AM 41.0 °F 32.8 °F 26.6 °F 57% 29.99 in 10.0 mi NW 16.1 mph 20.7 mph N/A   Overcast
12:15 PM 41.0 °F 32.5 °F 26.6 °F 57% 29.98 in 10.0 mi NW 17.3 mph - N/A   Overcast
12:35 PM 39.2 °F 31.2 °F 26.6 °F 61% 29.98 in 10.0 mi NW 13.8 mph - N/A   Overcast
1:15 PM 39.2 °F 30.2 °F 26.6 °F 61% 29.98 in 10.0 mi NW 17.3 mph 20.7 mph N/A   Overcast
1:35 PM 39.2 °F 31.6 °F 26.6 °F 61% 29.98 in 10.0 mi NW 12.7 mph - N/A   Overcast
2:15 PM 39.2 °F 30.8 °F 24.8 °F 56% 29.98 in 10.0 mi NNW 15.0 mph - N/A   Scattered Clouds
2:35 PM 41.0 °F 33.1 °F 26.6 °F 57% 29.99 in 10.0 mi NW 15.0 mph 20.7 mph N/A   Clear
2:55 PM 41.0 °F 34.3 °F 24.8 °F 53% 29.99 in 10.0 mi NW 11.5 mph 19.6 mph N/A   Clear
3:16 PM 41.0 °F 33.5 °F 24.8 °F 53% 30.00 in 10.0 mi NW 13.8 mph 17.3 mph N/A   Clear
3:35 PM 41.0 °F 32.8 °F 24.8 °F 53% 30.00 in 10.0 mi NW 16.1 mph - N/A   Clear
3:55 PM 39.2 °F 32.0 °F 24.8 °F 56% 30.01 in 10.0 mi NNW 11.5 mph - N/A   Clear
4:35 PM 39.2 °F 33.6 °F 24.8 °F 56% 30.01 in 10.0 mi NNW 8.1 mph - N/A   Clear
4:56 PM 39.2 °F 32.0 °F 26.6 °F 61% 30.01 in 10.0 mi NNW 11.5 mph - N/A   Clear
5:15 PM 37.4 °F 30.3 °F 26.6 °F 65% 30.02 in 10.0 mi NNW 10.4 mph - N/A   Clear
5:35 PM 37.4 °F 30.8 °F 24.8 °F 60% 30.03 in 10.0 mi NNW 9.2 mph - N/A   Clear
5:56 PM 37.4 °F 30.8 °F 24.8 °F 60% 30.04 in 10.0 mi NNW 9.2 mph - N/A   Clear
6:15 PM 37.4 °F 30.8 °F 26.6 °F 65% 30.04 in 10.0 mi North 9.2 mph - N/A   Clear
6:35 PM 35.6 °F 28.0 °F 26.6 °F 70% 30.05 in 10.0 mi North 10.4 mph - N/A   Clear
7:15 PM 35.6 °F 27.1 °F 24.8 °F 65% 30.05 in 10.0 mi North 12.7 mph - N/A   Clear
7:35 PM 35.6 °F 28.6 °F 24.8 °F 65% 30.06 in 10.0 mi North 9.2 mph - N/A   Clear
7:55 PM 35.6 °F 28.6 °F 26.6 °F 70% 30.07 in 10.0 mi North 9.2 mph - N/A   Clear
8:15 PM 33.8 °F 24.3 °F 23.0 °F 65% 30.07 in 10.0 mi North 13.8 mph 17.3 mph N/A   Clear
8:35 PM - - - N/A% 30.08 in 10.0 mi North 9.2 mph - N/A   Clear
8:55 PM 33.8 °F 24.8 °F 21.2 °F 60% 30.09 in 10.0 mi North 12.7 mph - N/A   Clear
9:16 PM 33.8 °F 25.3 °F 21.2 °F 60% 30.10 in 10.0 mi North 11.5 mph - N/A   Clear
9:35 PM 33.8 °F 24.8 °F 21.2 °F 60% 30.10 in 10.0 mi North 12.7 mph - N/A   Clear
9:55 PM 32.0 °F 21.6 °F 21.2 °F 64% 30.10 in 10.0 mi North 15.0 mph - N/A   Clear
10:15 PM 32.0 °F 22.5 °F 21.2 °F 64% 30.11 in 10.0 mi North 12.7 mph - N/A   Clear
10:55 PM 30.2 °F 22.6 °F 21.2 °F 69% 30.13 in 10.0 mi North 8.1 mph - N/A   Clear
11:15 PM 30.2 °F 22.6 °F 21.2 °F 69% 30.13 in 10.0 mi North 8.1 mph - N/A   Clear
11:35 PM 30.2 °F 22.6 °F 21.2 °F 69% 30.13 in 10.0 mi North 8.1 mph - N/A   Clear
11:55 PM 30.2 °F 23.4 °F 21.2 °F 69% 30.13 in 10.0 mi North 6.9 mph - N/A   Clear